When you browse on this site, cookies collect data to enhance your experience and personalize the content and advertising you see.
Visit our Privacy Policy to learn more. By continuing to use the site, you agree to this use of cookies and data.
  • In Belgien
  • Länderverzeichnis
  • Für 7 Tage
  • Wassertemperatur
  • Wetterkarte
  • Widgets
  • user-avatar
    Anmelden

    Stündliche Wetter Barinas

    Heute, 7 April, Dienstag

    Zeit Temperatur Niederschläge Wind Luftdruck Luftfeuchtigkeit
    00:00 +29°C° 0.9 mm 1 m/S 743 mmHg 76%
    01:00 +27°C° 0.9 mm 0 m/S 742 mmHg 78%
    02:00 +28°C° 1.3 mm 1 m/S 742 mmHg 79%
    03:00 +28°C° 1.3 mm 1 m/S 742 mmHg 80%
    04:00 +27°C° 1.3 mm 2 m/S 742 mmHg 82%
    05:00 +28°C° 0 mm 2 m/S 743 mmHg 80%
    06:00 +28°C° 0 mm 1 m/S 743 mmHg 78%
    07:00 +29°C° 0 mm 1 m/S 744 mmHg 75%
    08:00 +30°C° 0.1 mm 1 m/S 744 mmHg 71%
    09:00 +31°C° 0.1 mm 1 m/S 745 mmHg 67%
    10:00 +32°C° 0.1 mm 1 m/S 745 mmHg 63%
    11:00 +33°C° 0.1 mm 1 m/S 744 mmHg 58%
    12:00 +35°C° 0.1 mm 2 m/S 743 mmHg 54%
    13:00 +37°C° 0.1 mm 2 m/S 742 mmHg 50%
    14:00 +36°C° 0.1 mm 2 m/S 742 mmHg 50%
    15:00 +35°C° 0.1 mm 1 m/S 741 mmHg 50%
    16:00 +35°C° 0.1 mm 1 m/S 740 mmHg 51%
    17:00 +34°C° 0 mm 1 m/S 741 mmHg 56%
    18:00 +32°C° 0 mm 1 m/S 741 mmHg 60%
    19:00 +31°C° 0 mm 1 m/S 742 mmHg 65%
    20:00 +31°C° 0 mm 1 m/S 742 mmHg 66%
    21:00 +30°C° 0 mm 1 m/S 743 mmHg 68%
    22:00 +30°C° 0 mm 1 m/S 743 mmHg 69%
    23:00 +30°C° 0 mm 1 m/S 743 mmHg 69%

    Morgen, 8 April, Mittwoch

    Zeit Temperatur Niederschläge Wind Luftdruck Luftfeuchtigkeit
    00:00 +29°C° 0 mm 1 m/S 742 mmHg 69%
    01:00 +29°C° 0 mm 1 m/S 741 mmHg 69%
    02:00 +29°C° 0 mm 1 m/S 741 mmHg 69%
    03:00 +29°C° 0 mm 1 m/S 741 mmHg 68%
    04:00 +28°C° 0 mm 2 m/S 741 mmHg 68%
    05:00 +29°C° 0 mm 1 m/S 742 mmHg 65%
    06:00 +30°C° 0 mm 1 m/S 742 mmHg 63%
    07:00 +31°C° 0 mm 1 m/S 743 mmHg 60%
    08:00 +32°C° 0 mm 2 m/S 743 mmHg 58%
    09:00 +34°C° 0 mm 3 m/S 743 mmHg 56%
    10:00 +35°C° 0 mm 3 m/S 744 mmHg 54%
    11:00 +36°C° 0 mm 3 m/S 743 mmHg 51%
    12:00 +36°C° 0 mm 3 m/S 742 mmHg 48%
    13:00 +37°C° 0 mm 3 m/S 741 mmHg 45%
    14:00 +37°C° 0 mm 2 m/S 740 mmHg 44%
    15:00 +38°C° 0 mm 2 m/S 740 mmHg 43%
    16:00 +38°C° 0 mm 2 m/S 739 mmHg 42%
    17:00 +35°C° 0 mm 1 m/S 740 mmHg 46%
    18:00 +34°C° 0 mm 1 m/S 740 mmHg 50%
    19:00 +33°C° 0 mm 1 m/S 741 mmHg 55%
    20:00 +32°C° 0 mm 1 m/S 741 mmHg 57%
    21:00 +31°C° 0 mm 1 m/S 742 mmHg 59%
    22:00 +31°C° 0 mm 2 m/S 742 mmHg 61%
    23:00 +31°C° 0 mm 2 m/S 742 mmHg 61%

    übermorgen, 9 April, Donnerstag

    Zeit Temperatur Niederschläge Wind Luftdruck Luftfeuchtigkeit
    00:00 +30°C° 0 mm 2 m/S 741 mmHg 62%
    01:00 +30°C° 0 mm 2 m/S 741 mmHg 62%
    02:00 +29°C° 0.1 mm 2 m/S 741 mmHg 63%
    03:00 +29°C° 0.1 mm 2 m/S 741 mmHg 64%
    04:00 +29°C° 0.1 mm 1 m/S 741 mmHg 65%
    05:00 +29°C° 0.2 mm 1 m/S 741 mmHg 64%
    06:00 +30°C° 0.2 mm 1 m/S 742 mmHg 64%
    07:00 +30°C° 0.2 mm 1 m/S 743 mmHg 64%
    08:00 +32°C° 0.1 mm 1 m/S 743 mmHg 59%
    09:00 +34°C° 0.1 mm 2 m/S 743 mmHg 54%
    10:00 +36°C° 0.1 mm 2 m/S 743 mmHg 49%
    11:00 +37°C° 0 mm 2 m/S 742 mmHg 46%
    12:00 +38°C° 0 mm 2 m/S 741 mmHg 42%
    13:00 +37°C° 0 mm 1 m/S 740 mmHg 39%
    14:00 +37°C° 0 mm 1 m/S 740 mmHg 38%
    15:00 +39°C° 0 mm 1 m/S 739 mmHg 37%
    16:00 +39°C° 0 mm 1 m/S 739 mmHg 37%
    17:00 +36°C° 0 mm 1 m/S 739 mmHg 42%
    18:00 +34°C° 0 mm 1 m/S 740 mmHg 46%
    19:00 +33°C° 0 mm 1 m/S 740 mmHg 51%
    20:00 +32°C° 0 mm 1 m/S 741 mmHg 53%
    21:00 +32°C° 0 mm 1 m/S 741 mmHg 55%
    22:00 +31°C° 0 mm 1 m/S 742 mmHg 57%
    23:00 +31°C° 0 mm 1 m/S 741 mmHg 57%

    10 April, Freitag

    Zeit Temperatur Niederschläge Wind Luftdruck Luftfeuchtigkeit
    00:00 +30°C° 0 mm 1 m/S 741 mmHg 58%
    01:00 +30°C° 0 mm 1 m/S 741 mmHg 59%
    02:00 +29°C° 0 mm 1 m/S 741 mmHg 60%
    03:00 +29°C° 0 mm 1 m/S 741 mmHg 60%
    04:00 +29°C° 0 mm 1 m/S 741 mmHg 61%
    05:00 +29°C° 0.1 mm 1 m/S 742 mmHg 62%
    06:00 +30°C° 0.1 mm 1 m/S 742 mmHg 62%
    07:00 +30°C° 0.1 mm 1 m/S 743 mmHg 62%
    08:00 +32°C° 0 mm 1 m/S 743 mmHg 56%
    09:00 +34°C° 0 mm 1 m/S 743 mmHg 51%
    10:00 +36°C° 0 mm 2 m/S 743 mmHg 46%
    11:00 +37°C° 0 mm 2 m/S 742 mmHg 43%
    12:00 +38°C° 0 mm 2 m/S 742 mmHg 40%
    13:00 +39°C° 0 mm 2 m/S 741 mmHg 37%
    14:00 +39°C° 0 mm 2 m/S 741 mmHg 37%
    15:00 +39°C° 0 mm 2 m/S 740 mmHg 37%
    16:00 +39°C° 0 mm 2 m/S 740 mmHg 37%
    17:00 +37°C° 0 mm 2 m/S 740 mmHg 41%
    18:00 +36°C° 0 mm 2 m/S 741 mmHg 46%
    19:00 +33°C° 0 mm 1 m/S 741 mmHg 50%
    20:00 +32°C° 0 mm 1 m/S 742 mmHg 53%
    21:00 +31°C° 0 mm 1 m/S 742 mmHg 55%
    22:00 +31°C° 0 mm 1 m/S 742 mmHg 58%
    23:00 +30°C° 0 mm 1 m/S 742 mmHg 58%

    11 April, Samstag

    Zeit Temperatur Niederschläge Wind Luftdruck Luftfeuchtigkeit
    00:00 +30°C° 0 mm 1 m/S 742 mmHg 59%
    01:00 +30°C° 0 mm 1 m/S 742 mmHg 59%
    02:00 +29°C° 0.2 mm 1 m/S 742 mmHg 62%
    03:00 +28°C° 0.2 mm 2 m/S 742 mmHg 64%
    04:00 +28°C° 0.2 mm 2 m/S 742 mmHg 67%
    05:00 +28°C° 0.1 mm 2 m/S 743 mmHg 66%
    06:00 +29°C° 0.1 mm 2 m/S 743 mmHg 65%
    07:00 +29°C° 0.1 mm 2 m/S 744 mmHg 65%
    08:00 +31°C° 0 mm 2 m/S 744 mmHg 57%
    09:00 +35°C° 0 mm 2 m/S 744 mmHg 49%
    10:00 +37°C° 0 mm 2 m/S 744 mmHg 42%
    11:00 +38°C° 0 mm 2 m/S 743 mmHg 37%
    12:00 +39°C° 0 mm 2 m/S 743 mmHg 33%
    13:00 +40°C° 0 mm 2 m/S 742 mmHg 29%
    14:00 +40°C° 0 mm 2 m/S 741 mmHg 28%
    15:00 +40°C° 0 mm 2 m/S 741 mmHg 27%
    16:00 +40°C° 0 mm 2 m/S 740 mmHg 27%
    17:00 +38°C° 0 mm 2 m/S 741 mmHg 31%
    18:00 +36°C° 0 mm 2 m/S 741 mmHg 35%
    19:00 +33°C° 0 mm 1 m/S 741 mmHg 39%
    20:00 +32°C° 0 mm 1 m/S 742 mmHg 41%
    21:00 +32°C° 0 mm 1 m/S 742 mmHg 42%
    22:00 +31°C° 0 mm 1 m/S 743 mmHg 44%
    23:00 +30°C° 0 mm 1 m/S 743 mmHg 45%

    12 April, Sonntag

    Zeit Temperatur Niederschläge Wind Luftdruck Luftfeuchtigkeit
    00:00 +30°C° 0 mm 1 m/S 743 mmHg 46%
    01:00 +29°C° 0 mm 2 m/S 742 mmHg 48%
    02:00 +29°C° 0 mm 1 m/S 742 mmHg 48%
    03:00 +28°C° 0 mm 1 m/S 742 mmHg 49%
    04:00 +28°C° 0 mm 1 m/S 742 mmHg 50%
    05:00 +29°C° 0 mm 1 m/S 743 mmHg 49%
    06:00 +29°C° 0 mm 1 m/S 744 mmHg 48%
    07:00 +30°C° 0 mm 1 m/S 744 mmHg 46%
    08:00 +32°C° 0 mm 2 m/S 745 mmHg 41%
    09:00 +35°C° 0 mm 3 m/S 745 mmHg 36%
    10:00 +37°C° 0 mm 3 m/S 745 mmHg 30%
    11:00 +38°C° 0 mm 3 m/S 744 mmHg 28%
    12:00 +39°C° 0 mm 3 m/S 743 mmHg 25%
    13:00 +40°C° 0 mm 3 m/S 743 mmHg 23%
    14:00 +40°C° 0 mm 3 m/S 742 mmHg 22%
    15:00 +40°C° 0 mm 3 m/S 742 mmHg 21%
    16:00 +40°C° 0 mm 3 m/S 741 mmHg 20%
    17:00 +38°C° 0 mm 2 m/S 741 mmHg 24%
    18:00 +36°C° 0 mm 2 m/S 742 mmHg 29%
    19:00 +32°C° 0 mm 1 m/S 742 mmHg 33%
    20:00 +32°C° 0 mm 1 m/S 743 mmHg 35%
    21:00 +31°C° 0 mm 2 m/S 743 mmHg 36%
    22:00 +30°C° 0 mm 2 m/S 744 mmHg 38%
    23:00 +29°C° 0 mm 2 m/S 744 mmHg 39%
    Mehr zeigen